This is the latest recevied weather packets stored in our database for station/object KD4EG. If no packets are shown the sender has not sent any weather packets the latest 1 day(s).
| Time | Temp. | Humidity | Pressure | Rain* | Wind** | Luminosity | Snow |
|---|---|---|---|---|---|---|---|
| 1778042256 | 16.67° C | 66% | 1013.9 hPa | 0 mm | 0 m/s | 0 W/m² | - |
| 1778041953 | 16.67° C | 66% | 1013.9 hPa | 0 mm | 0.45 m/s, 308° | 0 W/m² | - |
| 1778041651 | 16.67° C | 64% | 1014.2 hPa | 0 mm | 0 m/s | 0 W/m² | - |
| 1778041353 | 16.67° C | 65% | 1014.1 hPa | 0 mm | 0.89 m/s, 301° | 0 W/m² | - |
| 1778041048 | 16.67° C | 63% | 1014.3 hPa | 0 mm | 0 m/s | 0 W/m² | - |
| 1778040745 | 16.67° C | 65% | 1014.6 hPa | 0 mm | 0.45 m/s, 304° | 0 W/m² | - |
| 1778040442 | 16.67° C | 65% | 1014.4 hPa | 0 mm | 0.45 m/s, 307° | 0 W/m² | - |
| 1778040139 | 16.67° C | 64% | 1014 hPa | 0 mm | 0.45 m/s, 303° | 0 W/m² | - |
| 1778039835 | 16.67° C | 64% | 1014.4 hPa | 0 mm | 0.45 m/s, 317° | 0 W/m² | - |
| 1778039533 | 16.67° C | 64% | 1014.6 hPa | 0 mm | 0.45 m/s, 352° | 0 W/m² | - |
| 1778039229 | 17.22° C | 63% | 1014.6 hPa | 0 mm | 0 m/s | 0 W/m² | - |
| 1778038927 | 16.67° C | 63% | 1014.4 hPa | 0 mm | 1.34 m/s, 28° | 0 W/m² | - |
| 1778038624 | 16.67° C | 63% | 1014 hPa | 0 mm | 0 m/s | 0 W/m² | - |
| 1778038321 | 16.67° C | 63% | 1014.3 hPa | 0 mm | 0 m/s | 0 W/m² | - |
| 1778038018 | 17.22° C | 63% | 1014.3 hPa | 0 mm | 0.45 m/s, 301° | 0 W/m² | - |
| 1778037715 | 17.22° C | 61% | 1014.1 hPa | 0 mm | 0 m/s | 0 W/m² | - |
| 1778037411 | 17.22° C | 62% | 1014.3 hPa | 0 mm | 0.45 m/s, 322° | 0 W/m² | - |
| 1778037108 | 17.22° C | 62% | 1014.4 hPa | 0 mm | 0.45 m/s, 308° | 0 W/m² | - |
| 1778036807 | 17.22° C | 61% | 1014.6 hPa | 0 mm | 0.45 m/s, 301° | 0 W/m² | - |
| 1778036504 | 17.78° C | 61% | 1014.5 hPa | 0 mm | 0.45 m/s, 303° | 0 W/m² | - |
| 1778036200 | 17.78° C | 59% | 1014.6 hPa | 0 mm | 0.89 m/s, 314° | 0 W/m² | - |
| 1778035896 | 17.78° C | 60% | 1014.5 hPa | 0 mm | 0 m/s | 0 W/m² | - |
| 1778035594 | 17.78° C | 58% | 1014.5 hPa | 0 mm | 0.45 m/s, 333° | 0 W/m² | - |
| 1778035290 | 17.78° C | 59% | 1014.5 hPa | 0 mm | 0 m/s | 0 W/m² | - |
| 1778034987 | 18.33° C | 59% | 1014.6 hPa | 0 mm | 0 m/s | 0 W/m² | - |
* Rain latest hour (hover to see other rain measurements)
** Current wind speed in m/s (hover to see current wind gust speed)